Flag for Austria Weather past 2 weeks in Bad Radkersburg, Styria, Austria

Now
46 °F

Fog.


Feels Like: 46 °F
Forecast: 50 / 66 °F
Wind: 1 mph from Northwest

Location: Murska Sobota

Current Time: Oct 20, 2014 at 7:08:38 AM

Latest Report: Oct 20, 2014 at 5:00 AM


Visibility: 0 mi

Pressure: 30.15 "Hg

Humidity: 100%

Dew point: 46 °F

Location of Bad RadkersburgLocation

Historic Weather in Bad Radkersburg — Graph

°F

Bad Radkersburg temperature yesterday

Maximum temperature yesterday: 71 °F (at 3:00 PM)
Minimum temperature yesterday: 46 °F (at 8:00 AM)
Average temperature yesterday: 56 °F

Past Weeks' High & Low Weather Summary

 TemperatureHumidityPressure
High79 °F (Oct 10, 1:00 PM)100% (Oct 6, 8:00 AM)30.35 "Hg (Oct 6, 8:00 AM)
Low42 °F (Oct 6, 7:00 AM)44% (Oct 14, 3:00 PM)29.75 "Hg (Oct 15, 4:00 PM)
Average61 °F82%30.00 "Hg
* Reported Oct 5 5:00 AM — Oct 20 5:00 AM, Bad Radkersburg, Weather by CustomWeather, © 2014

Note: Actual official high and low records may vary slightly from our data, if they occured in-between our weather recording intervals... More about our weather records

Advertising

Bad Radkersburg weather history for previous 24 hours

 ConditionsComfort  
Time TempWeatherWind HumidityBarometerVisibility
5:00 AM
Oct 20
46 °FFog.1 mph100%30.15 "Hg0 mi
4:00 AM47 °FCool.1 mph100%30.16 "HgN/A
3:00 AM47 °FCool.No wind99%30.16 "HgN/A
2:00 AM48 °FCool.1 mph99%30.17 "HgN/A
1:00 AM48 °FCool.No wind97%30.19 "HgN/A
12:00 AM50 °FCool.No wind97%30.19 "HgN/A
11:00 PM
Oct 19
51 °FCool.1 mph97%30.19 "HgN/A
10:00 PM51 °FCool.1 mph95%30.19 "HgN/A
9:00 PM54 °FCool.1 mph94%30.19 "HgN/A
8:00 PM56 °FPassing clouds.1 mph88%30.20 "Hg12 mi
7:00 PM61 °FCool.1 mph78%30.18 "HgN/A
6:00 PM65 °FMild.2 mph69%30.18 "HgN/A
5:00 PM69 °FMild.1 mph62%30.18 "HgN/A
4:00 PM71 °FMild.2 mph58%30.19 "HgN/A
3:00 PM71 °FPartly sunny.3 mph56%30.20 "Hg31 mi
2:00 PM70 °FScattered clouds.3 mph57%30.22 "Hg31 mi
1:00 PM68 °FMild.3 mph60%30.25 "HgN/A
12:00 PM67 °FMild.3 mph65%30.27 "HgN/A
11:00 AM63 °FMild.1 mph77%30.28 "HgN/A
9:00 AM50 °FCool.No wind100%30.31 "HgN/A
8:00 AM46 °FFog.No wind99%30.31 "Hg0 mi
7:00 AM46 °FFog.1 mph99%30.31 "Hg0 mi
Weather by CustomWeather, © 2014

See weather overviewHow to use our weather pages